When you browse on this site, cookies collect data to enhance your experience and personalize the content and advertising you see.
Visit our Privacy Policy to learn more. By continuing to use the site, you agree to this use of cookies and data.
  • Em Portugal
  • Lista de países
  • Para 7 dias
  • Temperatura da água
  • Mapas de satélite
  • Mapa do tempo
  • Widgets de tempo
  • user-avatar
    Iniciar Sessão

    Previsão horária em Killarney

    Hoje, 21 Março, Quinta-feira

    Tempo Temperatura Precipitação Vento Pressão Humidade
    00:00 +10°C° 0 mm 2 m/s 770 mmHg 95%
    01:00 +10°C° 0 mm 2 m/s 770 mmHg 95%
    02:00 +10°C° 0 mm 2 m/s 770 mmHg 96%
    03:00 +10°C° 0 mm 2 m/s 770 mmHg 96%
    04:00 +9°C° 0 mm 2 m/s 770 mmHg 97%
    05:00 +9°C° 0 mm 2 m/s 770 mmHg 97%
    06:00 +10°C° 0 mm 2 m/s 770 mmHg 95%
    07:00 +11°C° 0 mm 3 m/s 770 mmHg 92%
    08:00 +12°C° 0 mm 3 m/s 770 mmHg 89%
    09:00 +12°C° 0 mm 3 m/s 770 mmHg 87%
    10:00 +13°C° 0 mm 3 m/s 770 mmHg 85%
    11:00 +13°C° 0 mm 3 m/s 770 mmHg 83%
    12:00 +13°C° 0 mm 3 m/s 770 mmHg 83%
    13:00 +13°C° 0 mm 3 m/s 769 mmHg 83%
    14:00 +13°C° 0 mm 4 m/s 769 mmHg 83%
    15:00 +12°C° 0 mm 3 m/s 768 mmHg 85%
    16:00 +12°C° 0 mm 3 m/s 767 mmHg 88%
    17:00 +11°C° 0 mm 3 m/s 767 mmHg 90%
    18:00 +11°C° 0.1 mm 4 m/s 767 mmHg 91%
    19:00 +11°C° 0.1 mm 4 m/s 766 mmHg 92%
    20:00 +11°C° 0.1 mm 4 m/s 766 mmHg 94%
    21:00 +10°C° 0.1 mm 5 m/s 765 mmHg 92%
    22:00 +10°C° 0.1 mm 5 m/s 765 mmHg 91%
    23:00 +10°C° 0.1 mm 6 m/s 764 mmHg 90%

    Amanhã, 22 Março, Sexta-feira

    Tempo Temperatura Precipitação Vento Pressão Humidade
    00:00 +10°C° 0 mm 6 m/s 764 mmHg 90%
    01:00 +9°C° 0 mm 6 m/s 763 mmHg 90%
    02:00 +9°C° 0 mm 7 m/s 762 mmHg 90%
    03:00 +9°C° 0.1 mm 6 m/s 762 mmHg 90%
    04:00 +9°C° 0.1 mm 6 m/s 762 mmHg 90%
    05:00 +9°C° 0.1 mm 6 m/s 762 mmHg 90%
    06:00 +9°C° 0.4 mm 6 m/s 762 mmHg 91%
    07:00 +9°C° 0.4 mm 6 m/s 762 mmHg 93%
    08:00 +10°C° 0.4 mm 5 m/s 762 mmHg 94%
    09:00 +9°C° 0.6 mm 5 m/s 763 mmHg 92%
    10:00 +10°C° 0.6 mm 4 m/s 763 mmHg 91%
    11:00 +8°C° 0.6 mm 4 m/s 764 mmHg 89%
    12:00 +10°C° 0 mm 4 m/s 765 mmHg 83%
    13:00 +9°C° 0 mm 5 m/s 765 mmHg 77%
    14:00 +9°C° 0 mm 6 m/s 766 mmHg 71%
    15:00 +8°C° 0 mm 5 m/s 766 mmHg 71%
    16:00 +7°C° 0 mm 4 m/s 767 mmHg 70%
    17:00 +7°C° 0 mm 4 m/s 768 mmHg 70%
    18:00 +7°C° 0 mm 3 m/s 768 mmHg 72%
    19:00 +6°C° 0 mm 2 m/s 769 mmHg 74%
    20:00 +5°C° 0 mm 2 m/s 770 mmHg 77%
    21:00 +5°C° 0 mm 2 m/s 770 mmHg 78%
    22:00 +5°C° 0 mm 2 m/s 771 mmHg 78%
    23:00 +6°C° 0 mm 1 m/s 771 mmHg 79%

    Depois de amanhã, 23 Março, Sábado

    Tempo Temperatura Precipitação Vento Pressão Humidade
    00:00 +5°C° 0 mm 1 m/s 771 mmHg 78%
    01:00 +5°C° 0 mm 1 m/s 771 mmHg 77%
    02:00 +5°C° 0 mm 1 m/s 772 mmHg 76%
    03:00 +5°C° 0 mm 1 m/s 772 mmHg 77%
    04:00 +5°C° 0 mm 1 m/s 772 mmHg 77%
    05:00 +5°C° 0 mm 1 m/s 772 mmHg 77%
    06:00 +6°C° 0 mm 1 m/s 772 mmHg 73%
    07:00 +6°C° 0 mm 1 m/s 773 mmHg 70%
    08:00 +7°C° 0 mm 1 m/s 773 mmHg 66%
    09:00 +8°C° 0 mm 1 m/s 773 mmHg 63%
    10:00 +7°C° 0 mm 2 m/s 773 mmHg 60%
    11:00 +8°C° 0 mm 2 m/s 773 mmHg 57%
    12:00 +8°C° 0 mm 2 m/s 773 mmHg 58%
    13:00 +8°C° 0 mm 2 m/s 773 mmHg 59%
    14:00 +9°C° 0 mm 1 m/s 773 mmHg 61%
    15:00 +9°C° 0.2 mm 1 m/s 773 mmHg 66%
    16:00 +8°C° 0.2 mm 1 m/s 773 mmHg 72%
    17:00 +8°C° 0.2 mm 1 m/s 773 mmHg 78%
    18:00 +7°C° 0.1 mm 1 m/s 773 mmHg 80%
    19:00 +7°C° 0.1 mm 1 m/s 773 mmHg 82%
    20:00 +6°C° 0.1 mm 1 m/s 774 mmHg 84%
    21:00 +5°C° 0 mm 1 m/s 774 mmHg 85%
    22:00 +5°C° 0 mm 1 m/s 774 mmHg 86%
    23:00 +4°C° 0 mm 1 m/s 774 mmHg 87%

    24 Março, Domingo

    Tempo Temperatura Precipitação Vento Pressão Humidade
    00:00 +3°C° 0 mm 1 m/s 774 mmHg 87%
    01:00 +3°C° 0 mm 1 m/s 774 mmHg 87%
    02:00 +2°C° 0 mm 0 m/s 774 mmHg 87%
    03:00 +2°C° 0 mm 0 m/s 774 mmHg 87%
    04:00 +2°C° 0 mm 0 m/s 774 mmHg 87%
    05:00 +2°C° 0 mm 0 m/s 774 mmHg 87%
    06:00 +4°C° 0 mm 1 m/s 774 mmHg 81%
    07:00 +6°C° 0 mm 1 m/s 775 mmHg 76%
    08:00 +7°C° 0 mm 1 m/s 775 mmHg 71%
    09:00 +8°C° 0 mm 1 m/s 775 mmHg 67%
    10:00 +8°C° 0 mm 2 m/s 775 mmHg 62%
    11:00 +9°C° 0 mm 2 m/s 776 mmHg 58%
    12:00 +10°C° 0 mm 2 m/s 776 mmHg 58%
    13:00 +10°C° 0 mm 2 m/s 775 mmHg 58%
    14:00 +12°C° 0 mm 2 m/s 775 mmHg 57%
    15:00 +10°C° 0 mm 2 m/s 775 mmHg 63%
    16:00 +9°C° 0 mm 2 m/s 775 mmHg 68%
    17:00 +8°C° 0 mm 2 m/s 775 mmHg 73%
    18:00 +8°C° 0 mm 1 m/s 775 mmHg 78%
    19:00 +6°C° 0 mm 1 m/s 776 mmHg 83%
    20:00 +5°C° 0 mm 1 m/s 776 mmHg 87%
    21:00 +5°C° 0 mm 1 m/s 776 mmHg 88%
    22:00 +4°C° 0 mm 1 m/s 776 mmHg 88%
    23:00 +4°C° 0 mm 1 m/s 776 mmHg 88%

    25 Março, Segunda-feira

    Tempo Temperatura Precipitação Vento Pressão Humidade
    00:00 +4°C° 0 mm 1 m/s 776 mmHg 88%
    01:00 +4°C° 0 mm 1 m/s 776 mmHg 89%
    02:00 +3°C° 0 mm 1 m/s 776 mmHg 89%
    03:00 +3°C° 0 mm 1 m/s 775 mmHg 89%
    04:00 +3°C° 0 mm 1 m/s 775 mmHg 89%
    05:00 +3°C° 0 mm 1 m/s 775 mmHg 89%
    06:00 +5°C° 0 mm 1 m/s 776 mmHg 83%
    07:00 +7°C° 0 mm 1 m/s 776 mmHg 77%
    08:00 +8°C° 0 mm 1 m/s 776 mmHg 71%
    09:00 +10°C° 0 mm 1 m/s 776 mmHg 67%
    10:00 +11°C° 0 mm 1 m/s 776 mmHg 64%
    11:00 +13°C° 0 mm 2 m/s 776 mmHg 60%
    12:00 +13°C° 0 mm 2 m/s 775 mmHg 60%
    13:00 +13°C° 0 mm 2 m/s 775 mmHg 60%
    14:00 +14°C° 0 mm 2 m/s 775 mmHg 61%
    15:00 +13°C° 0 mm 2 m/s 774 mmHg 66%
    16:00 +12°C° 0 mm 1 m/s 774 mmHg 71%
    17:00 +11°C° 0 mm 1 m/s 774 mmHg 77%
    18:00 +10°C° 0 mm 1 m/s 774 mmHg 82%
    19:00 +8°C° 0 mm 1 m/s 775 mmHg 86%
    20:00 +6°C° 0 mm 1 m/s 775 mmHg 91%
    21:00 +6°C° 0 mm 1 m/s 775 mmHg 91%
    22:00 +6°C° 0 mm 1 m/s 775 mmHg 92%
    23:00 +5°C° 0 mm 1 m/s 775 mmHg 92%

    26 Março, Terça-feira

    Tempo Temperatura Precipitação Vento Pressão Humidade
    00:00 +5°C° 0 mm 1 m/s 774 mmHg 91%
    01:00 +5°C° 0 mm 1 m/s 774 mmHg 91%
    02:00 +5°C° 0 mm 1 m/s 774 mmHg 90%
    03:00 +4°C° 0 mm 1 m/s 774 mmHg 91%
    04:00 +4°C° 0 mm 1 m/s 774 mmHg 91%
    05:00 +4°C° 0 mm 1 m/s 774 mmHg 91%
    06:00 +5°C° 0 mm 2 m/s 774 mmHg 86%
    07:00 +6°C° 0 mm 2 m/s 774 mmHg 82%
    08:00 +8°C° 0 mm 2 m/s 774 mmHg 77%
    09:00 +10°C° 0 mm 2 m/s 774 mmHg 71%
    10:00 +12°C° 0 mm 2 m/s 774 mmHg 65%
    11:00 +14°C° 0 mm 2 m/s 774 mmHg 60%
    12:00 +14°C° 0 mm 2 m/s 773 mmHg 59%
    13:00 +15°C° 0 mm 2 m/s 773 mmHg 59%
    14:00 +15°C° 0 mm 2 m/s 773 mmHg 58%
    15:00 +14°C° 0 mm 2 m/s 773 mmHg 64%
    16:00 +13°C° 0 mm 2 m/s 772 mmHg 70%
    17:00 +12°C° 0 mm 2 m/s 772 mmHg 77%
    18:00 +10°C° 0 mm 2 m/s 772 mmHg 82%
    19:00 +9°C° 0 mm 1 m/s 772 mmHg 87%
    20:00 +7°C° 0 mm 1 m/s 773 mmHg 93%
    21:00 +7°C° 0 mm 1 m/s 773 mmHg 93%
    22:00 +6°C° 0 mm 1 m/s 772 mmHg 93%
    23:00 +6°C° 0 mm 1 m/s 772 mmHg 94%
    Mostrar mais